When you browse on this site, cookies collect data to enhance your experience and personalize the content and advertising you see.
Visit our Privacy Policy to learn more. By continuing to use the site, you agree to this use of cookies and data.
  • In Switzerland
  • List of Countries
  • For 7 days
  • Water Temperature
  • Satellite Maps
  • Weather Map
  • Weather Widgets
  • user-avatar
    Login

    Hourly Weather Wadzhir

    Today, 23 January, Wednesday

    Time Temperature Precipitation Wind Pressure Humidity
    00:00 +33°C° 0 mm 9 mps 735 mmHg 42%
    01:00 +32°C° 0 mm 8 mps 735 mmHg 47%
    02:00 +31°C° 0 mm 8 mps 735 mmHg 53%
    03:00 +28°C° 0 mm 7 mps 736 mmHg 60%
    04:00 +28°C° 0 mm 7 mps 736 mmHg 62%
    05:00 +27°C° 0 mm 6 mps 736 mmHg 64%
    06:00 +27°C° 0 mm 6 mps 737 mmHg 67%
    07:00 +27°C° 0 mm 5 mps 737 mmHg 63%
    08:00 +28°C° 0 mm 5 mps 737 mmHg 60%
    09:00 +28°C° 0 mm 4 mps 738 mmHg 57%
    10:00 +30°C° 0 mm 4 mps 737 mmHg 50%
    11:00 +33°C° 0 mm 3 mps 737 mmHg 43%
    12:00 +34°C° 0 mm 3 mps 737 mmHg 36%
    13:00 +36°C° 0 mm 3 mps 736 mmHg 32%
    14:00 +37°C° 0 mm 3 mps 736 mmHg 28%
    15:00 +38°C° 0 mm 3 mps 735 mmHg 23%
    16:00 +38°C° 0 mm 3 mps 735 mmHg 22%
    17:00 +39°C° 0 mm 3 mps 734 mmHg 20%
    18:00 +39°C° 0 mm 3 mps 734 mmHg 18%
    19:00 +38°C° 0 mm 3 mps 734 mmHg 19%
    20:00 +37°C° 0 mm 3 mps 735 mmHg 20%
    21:00 +37°C° 0 mm 3 mps 735 mmHg 21%
    22:00 +36°C° 0 mm 3 mps 735 mmHg 22%
    23:00 +35°C° 0 mm 4 mps 736 mmHg 23%

    Tomorrow, 24 January, Thursday

    Time Temperature Precipitation Wind Pressure Humidity
    00:00 +34°C° 0 mm 4 mps 736 mmHg 24%
    01:00 +33°C° 0 mm 5 mps 736 mmHg 36%
    02:00 +30°C° 0 mm 6 mps 736 mmHg 48%
    03:00 +28°C° 0 mm 6 mps 736 mmHg 60%
    04:00 +28°C° 0 mm 6 mps 736 mmHg 61%
    05:00 +27°C° 0 mm 6 mps 737 mmHg 62%
    06:00 +27°C° 0 mm 5 mps 737 mmHg 62%
    07:00 +28°C° 0 mm 5 mps 738 mmHg 59%
    08:00 +29°C° 0 mm 5 mps 738 mmHg 57%
    09:00 +29°C° 0 mm 6 mps 739 mmHg 54%
    10:00 +32°C° 0 mm 5 mps 739 mmHg 48%
    11:00 +33°C° 0 mm 5 mps 738 mmHg 42%
    12:00 +35°C° 0 mm 4 mps 738 mmHg 36%
    13:00 +36°C° 0 mm 4 mps 737 mmHg 32%
    14:00 +37°C° 0 mm 3 mps 736 mmHg 28%
    15:00 +38°C° 0 mm 3 mps 735 mmHg 24%
    16:00 +39°C° 0 mm 3 mps 735 mmHg 22%
    17:00 +39°C° 0 mm 3 mps 734 mmHg 21%
    18:00 +40°C° 0 mm 4 mps 734 mmHg 20%
    19:00 +38°C° 0 mm 3 mps 735 mmHg 21%
    20:00 +38°C° 0 mm 3 mps 735 mmHg 22%
    21:00 +37°C° 0 mm 3 mps 735 mmHg 23%
    22:00 +36°C° 0 mm 3 mps 736 mmHg 24%
    23:00 +35°C° 0 mm 3 mps 736 mmHg 25%

    Day after tomorrow, 25 January, Friday

    Time Temperature Precipitation Wind Pressure Humidity
    00:00 +35°C° 0 mm 3 mps 736 mmHg 26%
    01:00 +33°C° 0 mm 4 mps 736 mmHg 37%
    02:00 +30°C° 0 mm 5 mps 735 mmHg 48%
    03:00 +29°C° 0 mm 6 mps 735 mmHg 60%
    04:00 +28°C° 0 mm 6 mps 736 mmHg 61%
    05:00 +28°C° 0 mm 5 mps 736 mmHg 63%
    06:00 +27°C° 0 mm 5 mps 736 mmHg 65%
    07:00 +28°C° 0 mm 5 mps 737 mmHg 62%
    08:00 +29°C° 0 mm 5 mps 738 mmHg 60%
    09:00 +30°C° 0 mm 5 mps 738 mmHg 58%
    10:00 +32°C° 0 mm 5 mps 738 mmHg 50%
    11:00 +34°C° 0 mm 4 mps 738 mmHg 42%
    12:00 +36°C° 0 mm 4 mps 738 mmHg 35%
    13:00 +37°C° 0 mm 4 mps 737 mmHg 30%
    14:00 +38°C° 0 mm 4 mps 735 mmHg 26%
    15:00 +40°C° 0 mm 4 mps 734 mmHg 22%
    16:00 +39°C° 0 mm 3 mps 734 mmHg 21%
    17:00 +39°C° 0 mm 3 mps 734 mmHg 21%
    18:00 +39°C° 0 mm 3 mps 734 mmHg 20%
    19:00 +39°C° 0 mm 3 mps 735 mmHg 21%
    20:00 +38°C° 0 mm 3 mps 735 mmHg 21%
    21:00 +37°C° 0 mm 3 mps 736 mmHg 22%
    22:00 +36°C° 0 mm 4 mps 736 mmHg 26%
    23:00 +35°C° 0 mm 5 mps 736 mmHg 30%

    26 January, Saturday

    Time Temperature Precipitation Wind Pressure Humidity
    00:00 +34°C° 0 mm 6 mps 736 mmHg 35%
    01:00 +32°C° 0 mm 7 mps 736 mmHg 45%
    02:00 +30°C° 0 mm 7 mps 735 mmHg 56%
    03:00 +28°C° 0 mm 7 mps 735 mmHg 66%
    04:00 +28°C° 0 mm 7 mps 735 mmHg 68%
    05:00 +27°C° 0 mm 6 mps 736 mmHg 69%
    06:00 +27°C° 0 mm 6 mps 736 mmHg 71%
    07:00 +27°C° 0 mm 6 mps 737 mmHg 67%
    08:00 +28°C° 0 mm 6 mps 738 mmHg 63%
    09:00 +29°C° 0 mm 6 mps 739 mmHg 59%
    10:00 +32°C° 0 mm 6 mps 739 mmHg 51%
    11:00 +34°C° 0 mm 6 mps 738 mmHg 43%
    12:00 +36°C° 0 mm 6 mps 738 mmHg 35%
    13:00 +37°C° 0 mm 5 mps 737 mmHg 31%
    14:00 +39°C° 0 mm 5 mps 736 mmHg 28%
    15:00 +38°C° 0 mm 4 mps 735 mmHg 24%
    16:00 +40°C° 0 mm 4 mps 735 mmHg 23%
    17:00 +40°C° 0 mm 4 mps 735 mmHg 22%
    18:00 +40°C° 0 mm 4 mps 735 mmHg 20%
    19:00 +38°C° 0 mm 3 mps 735 mmHg 21%
    20:00 +37°C° 0 mm 3 mps 736 mmHg 22%
    21:00 +36°C° 0 mm 3 mps 736 mmHg 23%
    22:00 +36°C° 0 mm 3 mps 736 mmHg 24%
    23:00 +35°C° 0 mm 3 mps 736 mmHg 25%

    27 January, Sunday

    Time Temperature Precipitation Wind Pressure Humidity
    00:00 +35°C° 0 mm 3 mps 736 mmHg 26%
    01:00 +33°C° 0 mm 4 mps 736 mmHg 33%
    02:00 +32°C° 0 mm 5 mps 736 mmHg 41%
    03:00 +30°C° 0 mm 7 mps 736 mmHg 48%
    04:00 +29°C° 0 mm 6 mps 736 mmHg 52%
    05:00 +29°C° 0 mm 6 mps 736 mmHg 57%
    06:00 +28°C° 0 mm 6 mps 737 mmHg 62%
    07:00 +29°C° 0 mm 6 mps 737 mmHg 59%
    08:00 +29°C° 0 mm 6 mps 738 mmHg 56%
    09:00 +30°C° 0 mm 6 mps 739 mmHg 53%
    10:00 +33°C° 0 mm 6 mps 738 mmHg 46%
    11:00 +34°C° 0 mm 6 mps 738 mmHg 40%
    12:00 +36°C° 0 mm 5 mps 738 mmHg 33%
    13:00 +37°C° 0 mm 5 mps 736 mmHg 30%
    14:00 +38°C° 0 mm 4 mps 735 mmHg 27%
    15:00 +40°C° 0 mm 4 mps 734 mmHg 24%
    16:00 +40°C° 0 mm 4 mps 734 mmHg 23%
    17:00 +40°C° 0 mm 4 mps 734 mmHg 22%
    18:00 +40°C° 0 mm 5 mps 734 mmHg 21%
    19:00 +39°C° 0 mm 5 mps 735 mmHg 22%
    20:00 +39°C° 0 mm 5 mps 735 mmHg 22%
    21:00 +37°C° 0 mm 5 mps 736 mmHg 23%
    22:00 +36°C° 0 mm 6 mps 736 mmHg 23%
    23:00 +36°C° 0 mm 6 mps 736 mmHg 24%

    28 January, Monday

    Time Temperature Precipitation Wind Pressure Humidity
    00:00 +35°C° 0 mm 7 mps 736 mmHg 25%
    01:00 +34°C° 0 mm 6 mps 736 mmHg 26%
    02:00 +34°C° 0 mm 6 mps 736 mmHg 26%
    03:00 +33°C° 0 mm 6 mps 735 mmHg 27%
    04:00 +32°C° 0 mm 6 mps 736 mmHg 31%
    05:00 +30°C° 0 mm 5 mps 736 mmHg 35%
    06:00 +29°C° 0 mm 5 mps 737 mmHg 40%
    07:00 +29°C° 0 mm 6 mps 737 mmHg 40%
    08:00 +30°C° 0 mm 7 mps 738 mmHg 41%
    09:00 +32°C° 0 mm 7 mps 739 mmHg 42%
    10:00 +33°C° 0 mm 7 mps 738 mmHg 36%
    11:00 +35°C° 0 mm 7 mps 738 mmHg 30%
    12:00 +38°C° 0 mm 6 mps 738 mmHg 24%
    13:00 +39°C° 0 mm 6 mps 737 mmHg 21%
    14:00 +40°C° 0 mm 6 mps 736 mmHg 19%
    15:00 +41°C° 0 mm 5 mps 735 mmHg 17%
    16:00 +40°C° 0 mm 6 mps 734 mmHg 17%
    17:00 +40°C° 0 mm 6 mps 734 mmHg 17%
    18:00 +40°C° 0 mm 6 mps 734 mmHg 17%
    19:00 +39°C° 0 mm 6 mps 735 mmHg 18%
    20:00 +37°C° 0 mm 5 mps 735 mmHg 19%
    21:00 +36°C° 0 mm 5 mps 735 mmHg 20%
    22:00 +35°C° 0 mm 5 mps 736 mmHg 21%
    23:00 +35°C° 0 mm 4 mps 736 mmHg 22%
    Show more